This page uses our WeatherBlox Daily Observations layout. Learn more.

Hourly Observations for February 13, 2018

Temp ( °F °C ) Dew Point ( °F °C ) Humidity (%) Winds ( mph kmh ) Pressure ( in mb ) Visibility ( mi km ) Precip ( " mm )
12:15 am 00:15 Clear 34 1 25 -4 70 70 N 7 11 30.71 1040 10 16.09344 0 0
12:35 am 00:35 Clear 32 0 25 -4 75 75 N 8 13 30.71 1040 10 16.09344 0 0
12:55 am 00:55 Clear 34 1 25 -4 70 70 N 7 11 30.71 1040 10 16.09344 0 0
1:15 am 01:15 Clear 34 1 23 -5 65 65 N 7 11 30.71 1040 10 16.09344 0 0
1:35 am 01:35 Clear 34 1 21 -6 60 60 N 8 13 30.71 1040 10 16.09344 0 0
1:55 am 01:55 Clear 34 1 21 -6 60 60 N 7 11 30.71 1040 10 16.09344 0 0
2:15 am 02:15 Clear 34 1 21 -6 60 60 N 7 11 30.71 1040 10 16.09344 0 0
2:35 am 02:35 Clear 34 1 21 -6 60 60 N 7 11 30.71 1040 10 16.09344 0 0
2:55 am 02:55 Clear 34 1 21 -6 60 60 N 5 7 30.71 1040 10 16.09344 0 0
3:15 am 03:15 Clear 32 0 21 -6 64 64 N 6 9 30.71 1040 10 16.09344 0 0
3:35 am 03:35 Clear 32 0 21 -6 64 64 N 5 7 30.74 1041 10 16.09344 0 0
3:55 am 03:55 Clear 32 0 21 -6 64 64 N 5 7 30.74 1041 10 16.09344 0 0
4:15 am 04:15 Clear 32 0 21 -6 64 64 N 6 9 30.74 1041 10 16.09344 0 0
4:35 am 04:35 Clear 32 0 21 -6 64 64 Calm 30.74 1041 10 16.09344 0 0
4:55 am 04:55 Clear 30 -1 23 -5 75 75 Calm 30.77 1042 10 16.09344 0 0
5:15 am 05:15 Clear 30 -1 23 -5 75 75 Calm 30.77 1042 10 16.09344 0 0
5:35 am 05:35 Clear 28 -2 21 -6 74 74 N 3 6 30.77 1042 10 16.09344 0 0
5:55 am 05:55 Clear 30 -1 21 -6 69 69 N 3 6 30.77 1042 10 16.09344 0 0
6:15 am 06:15 Clear 30 -1 21 -6 69 69 NNE 7 11 30.77 1042 10 16.09344 0 0
6:35 am 06:35 Clear 30 -1 21 -6 69 69 NNE 7 11 30.77 1042 10 16.09344 0 0
6:55 am 06:55 Clear 30 -1 21 -6 69 69 NNE 6 9 30.8 1043 10 16.09344 0 0
7:15 am 07:15 Sunny 30 -1 21 -6 69 69 NE 7 11 30.8 1043 10 16.09344 0 0
7:35 am 07:35 Sunny 30 -1 21 -6 69 69 NE 6 9 30.8 1043 10 16.09344 0 0
7:55 am 07:55 Sunny 30 -1 21 -6 69 69 NE 5 7 30.8 1043 10 16.09344 0 0
8:15 am 08:15 Sunny 32 0 21 -6 64 64 NNE 7 11 30.8 1043 10 16.09344 0 0
8:35 am 08:35 Sunny 32 0 21 -6 64 64 NE 3 6 30.83 1044 10 16.09344 0 0
8:55 am 08:55 Sunny 32 0 21 -6 64 64 ENE 7 11 30.8 1043 10 16.09344 0 0
9:15 am 09:15 Sunny 32 0 21 -6 64 64 NE 8 13 30.83 1044 10 16.09344 0 0
9:35 am 09:35 Sunny 34 1 21 -6 60 60 NE 7 11 30.8 1043 10 16.09344 0 0
9:55 am 09:55 Sunny 34 1 21 -6 60 60 ENE 10 17 30.8 1043 10 16.09344 0 0
10:15 am 10:15 Sunny 36 2 21 -6 56 56 NNE 5 7 30.8 1043 10 16.09344 0 0
10:35 am 10:35 Sunny 36 2 21 -6 56 56 N 6 9 30.8 1043 10 16.09344 0 0
10:55 am 10:55 Sunny 36 2 21 -6 56 56 NNE 3 6 30.8 1043 10 16.09344 0 0
11:15 am 11:15 Sunny 36 2 21 -6 56 56 NNE 6 9 30.77 1042 10 16.09344 0 0
11:35 am 11:35 Sunny 37 3 21 -6 52 52 NNE 3 6 30.77 1042 10 16.09344 0 0
11:55 am 11:55 Sunny 37 3 21 -6 52 52 Calm 30.77 1042 10 16.09344 0 0
12:15 pm 12:15 Sunny 39 4 21 -6 48 48 SSE 3 6 30.74 1041 10 16.09344 0 0
12:35 pm 12:35 Sunny 41 5 19 -7 42 42 E 6 9 30.74 1041 10 16.09344 0 0
12:55 pm 12:55 Sunny 41 5 21 -6 45 45 ENE 5 7 30.74 1041 10 16.09344 0 0
1:15 pm 13:15 Mostly Cloudy 41 5 19 -7 42 42 SE 3 6 30.74 1041 10 16.09344 0 0
1:35 pm 13:35 Cloudy 43 6 21 -6 42 42 S 6 9 30.71 1040 10 16.09344 0 0
1:55 pm 13:55 Cloudy 43 6 19 -7 39 39 S 8 13 30.71 1040 10 16.09344 0 0
2:15 pm 14:15 Cloudy 43 6 21 -6 42 42 SSE 8 13 30.68 1039 10 16.09344 0 0
2:35 pm 14:35 Cloudy 43 6 21 -6 42 42 S 6 9 30.68 1039 10 16.09344 0 0
2:55 pm 14:55 Cloudy with Light Rain 41 5 28 -2 61 61 S 6 9 30.68 1039 10 16.09344 0 0
3:15 pm 15:15 Cloudy 43 6 21 -6 42 42 S 6 9 30.71 1040 10 16.09344 0 0
3:35 pm 15:35 Cloudy 41 5 23 -5 49 49 S 9 15 30.68 1039 10 16.09344 0 0
3:55 pm 15:55 Cloudy with Light Rain 41 5 25 -4 53 53 S 9 15 30.68 1039 10 16.09344 0 0
4:15 pm 16:15 Cloudy with Light Rain 39 4 30 -1 70 70 S 10 17 30.68 1039 7 11.265408 0 0
4:35 pm 16:35 Cloudy with Light Rain 37 3 30 -1 75 75 S 3 6 30.68 1039 7 11.265408 0 0
4:55 pm 16:55 Cloudy 37 3 30 -1 75 75 S 7 11 30.68 1039 10 16.09344 0 0
5:15 pm 17:15 Cloudy with Light Rain 37 3 32 0 81 81 S 8 13 30.68 1039 7 11.265408 0 0
5:35 pm 17:35 Cloudy 37 3 32 0 81 81 S 8 13 30.68 1039 10 16.09344 0 0
5:55 pm 17:55 Cloudy 37 3 32 0 81 81 SSW 5 7 30.68 1039 10 16.09344 0 0
6:15 pm 18:15 Cloudy 37 3 32 0 81 81 S 6 9 30.68 1039 10 16.09344 0 0
6:35 pm 18:35 Cloudy 37 3 30 -1 75 75 S 6 9 30.65 1038 10 16.09344 0 0
6:55 pm 18:55 Cloudy 37 3 30 -1 75 75 S 9 15 30.65 1038 10 16.09344 0 0
7:15 pm 19:15 Cloudy 37 3 30 -1 75 75 S 8 13 30.65 1038 10 16.09344 0 0
7:35 pm 19:35 Cloudy 37 3 30 -1 75 75 S 7 11 30.65 1038 10 16.09344 0 0
7:55 pm 19:55 Cloudy 37 3 28 -2 70 70 S 8 13 30.65 1038 10 16.09344 0 0
8:15 pm 20:15 Cloudy 37 3 28 -2 70 70 S 9 15 30.65 1038 10 16.09344 0 0
8:35 pm 20:35 Cloudy 37 3 28 -2 70 70 S 9 15 30.62 1037 10 16.09344 0 0
8:55 pm 20:55 Cloudy 37 3 28 -2 70 70 S 8 13 30.62 1037 10 16.09344 0 0
9:15 pm 21:15 Cloudy 37 3 28 -2 70 70 S 7 11 30.62 1037 10 16.09344 0 0
9:35 pm 21:35 Cloudy 37 3 28 -2 70 70 S 8 13 30.62 1037 10 16.09344 0 0
9:55 pm 21:55 Cloudy 37 3 28 -2 70 70 S 7 11 30.59 1036 10 16.09344 0 0
10:15 pm 22:15 Cloudy 37 3 28 -2 70 70 S 8 13 30.59 1036 10 16.09344 0 0
10:35 pm 22:35 Cloudy 37 3 28 -2 70 70 S 8 13 30.59 1036 10 16.09344 0 0
10:55 pm 22:55 Cloudy 36 2 28 -2 75 75 SSW 7 11 30.59 1036 10 16.09344 0 0
11:15 pm 23:15 Cloudy 36 2 30 -1 81 81 S 8 13 30.59 1036 10 16.09344 0 0
11:35 pm 23:35 Partly Cloudy 36 2 30 -1 81 81 S 6 9 30.56 1035 10 16.09344 0 0
11:55 pm 23:55 Clear 34 1 28 -2 81 81 S 6 9 30.56 1035 10 16.09344 0 0